Location: Marcé
(47.5801°N, 0.3280°W)
Time: 02:47:43
(UTC+01:00)

Explorer 11/Cluster Stage 4 - Pass Details

Date: 30 November 2021
Orbit: 467 x 1255 km, 28.8° (Epoch: 26 January)

Event Time Altitude Azimuth Distance (km) Brightness Sun altitude
Rises 08:41:38 0° 249° (WSW) 4,183 10.0 1.2°
Reaches altitude 10° 08:46:28 10° 225° (SW) 3,220 9.6 1.8°
Maximum altitude 08:49:56 13° 200° (SSW) 2,943 9.8 2.3°
Drops below altitude 10° 08:53:19 10° 174° (S) 3,132 10.4 2.8°
Sets 08:57:54 0° 150° (SSE) 3,975 11.7 3.4°
